www.pogodaiklimat.ru

Погода и климат >> Архив погоды >> Бельгия >> Charleroi


ПОГОДА в Charleroi

  • Прогноз погоды в Charleroi
  • Монитор погоды в Charleroi
  • Климат города

АРХИВ ПОГОДЫ в Charleroi

Время (UTC), дата Ветер
(напр.,м/с)
 
Видим.   Явления Облачность Т
(С)
Тd
(С)
f
(%)
Тe
(С)
Тes
(С)
Комфортность P
(гПа)
Po
(гПа)
Тmin
(С)
Tmax
(С)
R
(мм)
R24
(мм)
S
(см)
10 11.10 Ю 6
{10}
20 км 4/0
[Ac trans Ci fib]
+20.6 +12.2 59 +23 +24 комфорт 1010.7 989.0
11 11.10 Ю 8
{12}
20 км 4/0
[Ac trans Ci fib]
+21.7 +11.7 53 +24 +25 комфорт 1010.4 988.8
12 11.10 Ю 7
{12}
20 км {дождь} 4/1 1050 м
[Cu hum Ac trans Ci fib]
+22.1 +12.1 53 +24 +26 комфорт 1010.1 988.5
13 11.10 Ю 6
{10}
20 км 4/1 1050 м
[Cu hum Ci fib]
+22.5 +12.1 52 +25 +27 комфорт 1009.9 988.4
14 11.10 Ю 7
{11}
20 км 1/1 1050 м
[Cu hum Ci fib]
+22.7 +12.7 53 +25 +26 комфорт 1009.9 988.4
15 11.10 Ю 5
{11}
20 км 1/1 1050 м
[Cu hum Ci fib]
+22.6 +12.6 53 +25 +26 комфорт 1010.1 988.5
16 11.10 Ю 5
{11}
20 км 4/1 1350 м
[Cu hum Ci fib]
+22.1 +13.0 56 +25 +25 комфорт 1010.3 988.7
17 11.10 Ю 3
{9}
20 км 4/1 1350 м
[Cu hum Ci fib]
+20.6 +12.9 61 +23 +23 комфорт 1011.0 989.3
18 11.10 ЮВ 2
{11}
20 км 4/1 1350 м
[Cu hum Ci fib]
+19.3 +12.7 66 +21 +21 комфорт 1011.5 989.7 +23.0
19 11.10 ЮВ 3
{5}
20 км 4/0
[Ci fib]
+18.5 +12.9 70 +19 +19 1011.5 989.6
20 11.10 ЮВ 3
{6}
20 км 4/0
[Ci fib]
+17.8 +13.1 74 +18 +18 1011.5 989.6
21 11.10 ЮВ 4
{7}
20 км 4/0
[Ci fib]
+18.2 +12.7 70 +18 +18 1011.6 989.7
22 11.10 Ю 7
{13}
4000 м гроза, ливневой дождь 6/6 1050 м
[Cb cap Ci fib]
+17.4 +13.8 79 +16 +16 1013.5 991.5
23 11.10 ЮВ 3
{13}
20 км 4/4 2000 м
[Sc Ci fib]
+15.7 +14.6 93 +15 +15 1013.5 991.4
00 12.10 Ю 5
{13}
20 км 4/4 2000 м
[Sc Ci fib]
+16.4 +14.5 89 +15 +15 1014.2 992.1 4
01 12.10 Ю 4
{8}
20 км 4/4 2000 м
[Sc Ci fib]
+15.7 +13.8 88 +15 +15 1014.7 992.6
02 12.10 Ю 4
{7}
20 км 4/4 2000 м
[Sc Ci fib]
+15.1 +13.2 88 +14 +14 1015.0 992.8
03 12.10 Ю 3
{8}
20 км 4/4 2000 м
[Sc Ci fib]
+14.5 +13.1 91 +14 +14 1015.7 993.5
04 12.10 Ю 4
{6}
20 км 4/4 450 м
[Sc Ci fib]
+14.9 +13.3 90 +14 +14 1016.3 994.0
05 12.10 Ю 5
{8}
20 км 6/6 330 м
[Sc Ci fib]
+15.5 +13.6 88 +14 +14 1016.6 994.4
06 12.10 Ю 4
{8}
20 км 9/8 480 м
[Sc Ac trans Ci sp]
+15.3 +13.0 86 +14 +14 1017.4 995.2 +14.5 4
07 12.10 Ю 5
{7}
20 км 9/4 420 м
[Sc Ac trans Ci sp]
+15.3 +13.4 88 +14 +14 1018.0 995.8
08 12.10 Ю 5
{9}
20 км 6/4 420 м
[Sc Ci fib]
+16.4 +13.9 85 +15 +16 1018.4 996.3
09 12.10 Ю 6
{11}
20 км 6/1 420 м
[Sc diur, vesp Ci fib]
+18.2 +14.7 80 +18 +19 1018.7 996.7
10 12.10 Ю 5
{11}
20 км 8/1 420 м
[Cu hum Ci fib]
+19.0 +14.4 75 +20 +22 1018.6 996.6
11 12.10 Ю 6
{10}
20 км 8/1 720 м
[Cu hum Ci fib]
+20.4 +14.6 69 +23 +24 комфорт 1018.6 996.7
12 12.10 Ю 5
{11}
20 км 8/1 720 м
[Cu hum Ci fib]
+20.6 +15.0 70 +23 +26 комфорт 1018.5 996.6
13 12.10 Ю 6
{10}
20 км 8/1 720 м
[Cu hum Ci fib]
+21.7 +14.9 65 +25 +26 комфорт 1018.4 996.6
14 12.10 Ю 6
{11}
20 км 8/1 900 м
[Cu hum Ci fib]
+22.1 +15.2 65 +26 +27 душно 1018.5 996.8
15 12.10 Ю 5
{12}
20 км 8/1 900 м
[Cu hum Ci fib]
+22.4 +15.3 64 +26 +27 жарко 1018.4 996.7
16 12.10 Ю 5
{9}
20 км 8/1 900 м
[Cu hum Ci fib]
+21.7 +14.7 64 +25 +25 комфорт 1018.5 996.7
17 12.10 Ю 4
{7}
20 км 8/1 900 м
[Cu hum Ci fib]
+21.1 +14.2 65 +24 +24 комфорт 1018.7 996.9
18 12.10 Ю 4
{12}
20 км 8/1 900 м
[Cu hum Ci sp]
+20.5 +13.8 65 +23 +23 комфорт 1019.2 997.4 +22.6
19 12.10 Ю 4
{6}
20 км 6/0
[Ci sp]
+20.5 +13.8 65 +23 +23 комфорт 1019.6 997.7
20 12.10 Ю 4
{6}
20 км 6/1 1410 м
[Sc Ci sp]
+20.0 +13.9 68 +22 +22 комфорт 1019.9 998.0
21 12.10 Ю 3
{6}
20 км 6/1 1410 м
[Sc Ci sp]
+19.0 +14.1 73 +20 +20 1020.0 998.0
22 12.10 Ю 3
{6}
20 км 6/1 1410 м
[Sc Ci sp]
+19.0 +13.5 70 +20 +20 1019.8 997.8
23 12.10 Ю 4
{8}
20 км 5/0
[Ci sp]
+19.2 +13.4 69 +20 +20 1019.4 997.4
00 13.10 Ю 4
{8}
20 км 4/0
[Ci sp]
+18.9 +13.5 71 +20 +20 1019.6 997.5
01 13.10 Ю 4
{6}
20 км 4/0
[Ci sp]
+18.1 +13.6 75 +18 +18 1019.6 997.5
02 13.10 Ю 3
{6}
20 км 6/5 1500 м
[Sc Ci sp]
+18.1 +14.0 77 +18 +18 1020.1 998.0
03 13.10 Ю 4
{6}
20 км 3/1 1500 м
[Sc Ci fib]
+17.7 +13.9 78 +17 +17 1019.8 997.7
04 13.10 ЮВ 4
{6}
20 км 1/1 1500 м
[Sc Ci fib]
+16.3 +13.6 84 +16 +16 1019.7 997.5
05 13.10 ЮВ 4
{6}
20 км 4/0
[Ci fib]
+16.1 +13.5 85 +15 +15 1019.3 997.0
06 13.10 ЮВ 3
{6}
20 км 4/0
[Ci fib]
+15.9 +13.4 85 +15 +15 1019.2 997.0 +15.9
07 13.10 ЮВ 3
{5}
20 км 4/0
[Ci fib]
+16.8 +13.4 80 +17 +17 1019.2 997.0
08 13.10 Ю 5
{9}
20 км 4/0
[Ci fib]
+18.1 +13.5 74 +18 +18 1019.2 997.1
09 13.10 ЮВ 4
{9}
20 км 4/0
[Ci fib]
+19.6 +13.6 68 +21 +23 комфорт 1019.0 997.0
10 13.10 Ю 4
{7}
20 км 4/0
[Ci fib]
+20.9 +13.9 64 +24 +26 комфорт 1018.4 996.5
11 13.10 Ю 5
{7}
20 км 3/0
[Ci fib]
+22.8 +14.6 60 +26 +29 жарко 1017.7 996.0
12 13.10 Ю 5
{9}
20 км 3/0
[Ci fib]
+23.5 +13.9 55 +26 +29 жарко 1016.8 995.2
13 13.10 ЮВ 5
{9}
20 км 3/0
[Ci fib]
+24.1 +14.0 53 +26 +29 жарко 1015.8 994.3
14 13.10 Ю 6
{10}
20 км 3/0
[Ci fib]
+23.5 +13.7 54 +26 +27 жарко 1015.4 993.8
15 13.10 ЮВ 5
{10}
20 км 3/0
[Ci fib]
+23.6 +13.5 53 +26 +27 жарко 1014.7 993.1
16 13.10 Ю 4
{8}
20 км 4/0
[Ci fib]
+23.0 +13.4 55 +26 +27 жарко 1013.9 992.3
17 13.10 Ю 2
{7}
20 км 5/0
[Ci fib]
+21.6 +12.6 57 +24 +24 комфорт 1013.9 992.2
18 13.10 Ю 2
{10}
20 км 6/0
[Ci sp]
+19.9 +13.2 65 +22 +22 комфорт 1013.9 992.0 +24.5
19 13.10 ЮВ 3
{6}
20 км 8/0
[Ci sp]
+18.8 +13.1 69 +20 +20 1013.6 991.7
20 13.10 Ю 2
{5}
20 км 8/0
[Ci sp]
+18.8 +12.9 69 +20 +20 1013.8 991.9
21 13.10 Ю 1
{6}
20 км 8/0
[Ci sp]
+18.8 +12.8 68 +21 +21 комфорт 1013.7 991.8
22 13.10 Ю 2
{3}
20 км 8/0
[Ci sp]
+17.8 +12.0 69 +18 +18 1013.4 991.4
23 13.10 Ю 3
{4}
20 км 5/0
[Ci sp]
+17.4 +12.0 71 +17 +17 1012.8 990.9
00 14.10 Ю 3
{6}
20 км 4/0
[Ci sp]
+16.9 +11.6 71 +17 +17 1012.2 990.2
01 14.10 Ю 3
{5}
20 км 3/0
[Ci sp]
+17.3 +11.5 69 +17 +17 1011.7 989.8
02 14.10 ЮВ 4
{5}
20 км 3/0
[Ci sp]
+16.2 +11.2 72 +15 +15 1010.9 988.8
03 14.10 Ю 4
{5}
20 км 5/0
[Ci sp]
+16.0 +11.1 73 +15 +15 1010.2 988.2
04 14.10 Ю 4
{6}
20 км 6/0
[Ci sp]
+16.5 +10.6 68 +16 +16 1009.9 987.9
05 14.10 нст 4
{8}
20 км 3/0
[Ci sp]
+15.7 +10.5 71 +15 +15 1009.5 987.5
06 14.10 Ю 4
{8}
20 км 5/0
[Ac trans Ci sp]
+15.8 +10.5 71 +15 +15 1009.5 987.4 +15.5
07 14.10 Ю 3
{7}
20 км 4/0
[Ac trans Ci fib]
+16.1 +10.6 70 +16 +16 1009.3 987.3
08 14.10 Ю 4
{7}
20 км 4/0
[Ac trans Ci fib]
+17.1 +10.7 66 +17 +17 1009.2 987.3
09 14.10 Ю 6
{9}
20 км 4/0
[Ci fib]
+18.7 +10.8 60 +19 +20 1008.9 987.1
10 14.10 Ю 6
{9}
20 км 4/0
[Ci fib]
+19.9 +9.3 50 +21 +22 комфорт 1008.3 986.5
11 14.10 Ю 7
{12}
20 км 4/0
[Ci fib]
+21.3 +9.5 47 +23 +24 комфорт 1007.8 986.2
12 14.10 Ю 8
{13}
20 км 4/0
[Ci fib]
+22.0 +8.5 42 +23 +24 комфорт 1007.5 986.0
13 14.10 Ю 8
{13}
20 км 4/0
[Ci fib]
+22.7 +8.8 41 +24 +25 комфорт 1006.8 985.3
14 14.10 Ю 6
{13}
20 км 4/0
[Ci fib]
+23.0 +8.9 41 +24 +26 комфорт 1006.9 985.4
15 14.10 Ю 6
{13}
20 км 4/0
[Ci fib]
+22.6 +9.4 43 +24 +25 комфорт 1007.1 985.6
16 14.10 Ю 5
{9}
20 км 5/0
[Ci fib]
+22.0 +9.5 45 +24 +24 комфорт 1007.1 985.5
17 14.10 Ю 3
{8}
20 км 5/0
[Ac trans Ci fib]
+21.1 +10.0 49 +23 +23 комфорт 1007.4 985.8
18 14.10 ЮВ 4
{13}
20 км 5/0
[Ac trans Ci fib]
+19.7 +10.3 55 +21 +21 комфорт 1007.6 985.9 +23.3
19 14.10 Ю 4
{7}
20 км 5/0
[Ac trans Ci fib]
+19.3 +9.6 53 +20 +20 1007.8 986.1
20 14.10 Ю 3
{8}
20 км 5/0
[Ac trans Ci fib]
+19.5 +9.1 51 +21 +21 комфорт 1008.1 986.4
21 14.10 Ю 3
{8}
20 км 6/0
[Ac trans Ci fib]
+19.0 +9.3 53 +20 +20 1008.4 986.6
22 14.10 Ю 4
{7}
20 км 6/0
[Ac trans Ci fib]
+18.9 +8.9 52 +19 +19 1008.6 986.8
23 14.10 Ю 4
{8}
20 км 6/0
[Ci sp]
+18.5 +8.6 52 +19 +19 1008.7 986.9
00 15.10 ЮВ 4
{8}
20 км 6/0
[Ac trans Ci sp]
+17.8 +8.5 54 +18 +18 1009.2 987.3
01 15.10 Ю 4
{6}
20 км 6/0
[Ac trans Ci fib]
+17.5 +8.3 55 +17 +17 1009.3 987.4
02 15.10 Ю 5
{7}
20 км 4/0
[Ac trans Ci sp]
+17.1 +8.0 55 +16 +16 1009.3 987.3
03 15.10 Ю 4
{7}
20 км 4/0
[Ac trans Ci sp]
+16.9 +7.8 55 +16 +16 1009.4 987.4
04 15.10 Ю 4
{6}
20 км 6/4 1500 м
[Sc Ac trans Ci sp]
+17.0 +8.0 55 +17 +17 1009.7 987.7
05 15.10 Ю 4
{7}
20 км 8/8 1500 м
[Sc]
+17.7 +8.6 55 +17 +17 1009.9 988.0
06 15.10 Ю 4
{7}
20 км 9/9 1500 м
[Sc]
+17.8 +9.4 58 +18 +18 1010.5 988.6 +16.8
07 15.10 Ю 3
{6}
20 км 9/8 1500 м
[Sc]
+17.7 +9.1 57 +18 +18 1010.9 988.9
08 15.10 Ю 3
{7}
20 км 8/1 1500 м
[Sc Ac trans Ci sp]
+18.1 +8.9 55 +18 +19 1011.4 989.5
09 15.10 Ю 4
{7}
20 км 9/0
[Ac trans Ci sp]
+18.7 +9.3 54 +19 +20 1012.0 990.1
10 15.10 Ю 5
{8}
20 км 9/0
[Ac trans Ci sp]
+19.8 +9.9 53 +21 +22 комфорт 1012.4 990.6
11 15.10 Ю 3
{8}
20 км 8/0
[Ac trans Ci sp]
+20.3 +9.2 49 +22 +25 комфорт 1012.4 990.6
12 15.10 Ю 4
{8}
20 км 5/0
[Ac trans Ci sp]
+21.5 +8.6 44 +23 +25 комфорт 1012.3 990.6
13 15.10 Ю 5
{7}
20 км 4/0
[Ac trans Ci sp]
+22.1 +9.5 45 +24 +26 комфорт 1012.2 990.6
14 15.10 Ю 5
{8}
20 км 3/0
[Ac trans Ci sp]
+23.0 +8.5 39 +24 +26 комфорт 1012.2 990.7
15 15.10 ЮЗ 5
{9}
20 км 3/0
[Ac trans Ci sp]
+23.2 +8.0 38 +24 +25 комфорт 1012.6 991.0
16 15.10 Ю 4
{8}
20 км 3/0
[Ac trans Ci sp]
+22.3 +8.3 41 +24 +24 комфорт 1013.1 991.4
17 15.10 Ю 3
{6}
20 км 1/0
[Ac trans Ci fib]
+20.9 +8.0 43 +23 +23 комфорт 1013.9 992.1
18 15.10 Ю 2
{9}
20 км 1/0
[Ci fib]
+19.2 +8.7 51 +21 +21 комфорт 1014.4 992.5 +23.5
19 15.10 ЮВ 2
{4}
20 км 1/0
[Ci fib]
+17.7 +9.2 57 +18 +18 1014.9 992.9
20 15.10 ЮВ 3
{4}
20 км 1/0
[Ci fib]
+16.5 +9.0 61 +16 +16 1015.2 993.0
21 15.10 Ю 3
{5}
20 км 1/0
[Ci fib]
+16.6 +8.6 59 +16 +16 1015.7 993.6
22 15.10 Ю 3
{5}
20 км 1/0
[Ci fib]
+16.3 +8.3 59 +16 +16 1015.8 993.6
23 15.10 Ю 2
{3}
20 км 1/0
[Ci fib]
+15.4 +8.4 63 +15 +15 1016.1 993.9
00 16.10 Ю 2
{5}
20 км 1/0
[Ci fib]
+14.0 +9.1 72 +14 +14 1016.6 994.3
01 16.10 Ю 1
{3}
20 км 1/0
[Ci fib]
+14.4 +8.4 67 +15 +15 1017.0 994.6
02 16.10 Ю 2
{3}
20 км 1/0
[Ci fib]
+14.0 +8.5 69 +14 +14 1017.1 994.7
03 16.10 ЮЗ 1
{6}
20 км 1/0
[Ci fib]
+13.3 +8.1 71 +14 +14 1017.4 995.0
04 16.10 Ю 1
{2}
20 км 1/0
[Ci fib]
+12.9 +8.5 75 +13 +13 1017.8 995.3
05 16.10 Ю 3
{4}
20 км 1/0
[Ci fib]
+12.7 +8.5 76 +11 +11 1017.9 995.4
06 16.10 ЮВ 1
{6}
20 км 4/0
[Ci fib]
+12.9 +8.2 73 +13 +13 1018.1 995.6 +11.3
07 16.10 Ю 1
{5}
20 км 6/0
[Ac trans Ci fib]
+12.8 +8.8 77 +13 +13 1018.5 996.0
08 16.10 ЮВ 1
{3}
20 км 6/0
[Ac trans Ci fib]
+14.1 +9.1 72 +15 +15 1018.7 996.3
09 16.10 ЮВ 2
{5}
20 км 5/0
[Ci fib]
+17.4 +9.6 60 +18 +20 1018.6 996.5
10 16.10 нст 1
{4}
20 км 5/0
[Ci fib]
+19.9 +9.5 51 +22 +26 комфорт 1018.6 996.7
11 16.10 ЮВ 3
{4}
20 км 5/0
[Ci fib]
+22.1 +8.7 42 +23 +27 комфорт 1018.3 996.5
12 16.10 В 4
{5}
20 км 5/0
[Ci fib]
+22.9 +8.7 40 +24 +27 комфорт 1017.9 996.1
13 16.10 Ю 3
{6}
20 км 5/0
[Ci fib]
+23.8 +8.3 37 +24 +28 комфорт 1017.7 996.0
14 16.10 Ю 4
{6}
20 км 5/0
[Ci fib]
+24.3 +6.4 32 +24 +26 комфорт 1017.6 996.0
15 16.10 ЮЗ 3
{6}
20 км 5/0
[Ci fib]
+23.6 +9.2 40 +24 +26 комфорт 1017.6 996.0
16 16.10 З 3
{6}
20 км 5/0
[Ci fib]
+21.4 +11.0 51 +23 +23 комфорт 1017.9 996.1
17 16.10 З 2
{4}
20 км 5/0
[Ci fib]
+20.0 +11.6 58 +22 +22 комфорт 1018.3 996.3
18 16.10 ЮЗ 1
{6}
20 км 5/0
[Ci fib]
+19.4 +10.7 57 +22 +22 комфорт 1018.7 996.7 +24.5
19 16.10 ЮВ 2
{3}
20 км 5/0
[Ci fib]
+18.4 +11.2 63 +19 +19 1018.8 996.8
20 16.10 ЮВ 3
{4}
20 км 5/0
[Ci fib]
+17.9 +10.7 63 +18 +18 1019.0 996.9
21 16.10 ЮЗ 2
{4}
12 км 4/0
[Ci fib]
+15.3 +11.0 76 +15 +15 1019.3 997.0
22 16.10 Ю 2
{3}
12 км 4/0
[Ci fib]
+15.1 +11.1 77 +15 +15 1019.2 996.9
23 16.10 Ю 3
{4}
15 км 5/0
[Ci fib]
+14.9 +10.1 73 +14 +14 1018.8 996.5
00 17.10 Ю 3
{4}
15 км 5/0
[Ci fib]
+14.4 +9.8 74 +14 +14 1018.9 996.5
01 17.10 Ю 2
{4}
15 км 5/0
[Ci fib]
+13.9 +9.1 73 +13 +13 1018.8 996.4
02 17.10 З 2
{6}
15 км 5/0
[Ci fib]
+12.9 +9.4 79 +12 +12 1019.2 996.7
03 17.10 ЮЗ 1
{6}
15 км 5/0
[Ci fib]
+11.7 +9.2 85 +12 +12 1019.1 996.5
04 17.10 Ю 1
{2}
10 км 5/0
[Ci fib]
+11.1 +9.2 88 +11 +11 1019.4 996.7
05 17.10 Ю 2
{3}
8000 м 5/0
[Ci fib]
+11.4 +9.4 88 +10 +10 1019.3 996.7
06 17.10 ЮЗ 1
{6}
8000 м 5/0
[Ci sp]
+11.1 +9.3 89 +11 +11 1019.6 997.0 +10.8
07 17.10 Ю 1
{3}
7000 м 6/0
[Ci sp]
+11.4 +9.7 89 +11 +11 1019.8 997.2
08 17.10 СЗ 1
{2}
8000 м 6/0
[Ci sp]
+12.5 +10.2 86 +12 +13 1019.9 997.4
09 17.10 СЗ 2
{4}
8000 м 6/0
[Ci fib]
+14.5 +11.6 83 +14 +16 1020.1 997.7
10 17.10 С 2
{4}
9000 м 6/0
[Ci sp]
+16.0 +12.2 78 +16 +19 1020.1 997.8
11 17.10 С 1
{3}
10 км 6/0
[Ci sp]
+17.3 +12.3 72 +18 +23 1019.8 997.6
12 17.10 С 2
{4}
15 км 6/0
[Ci sp]
+18.2 +11.5 65 +19 +23 1019.4 997.4
13 17.10 СВ 1
{6}
15 км 5/0
[Ci sp]
+19.1 +12.3 65 +21 +26 комфорт 1019.1 997.1
14 17.10 С 2
{4}
15 км 5/1 750 м
[Cu hum Ci sp]
+19.2 +12.4 65 +21 +23 комфорт 1019.0 997.0
15 17.10 С 2
{6}
15 км 5/1 800 м
[Cu hum Ci sp]
+19.2 +12.1 63 +21 +22 комфорт 1019.0 997.0
16 17.10 С 2
{4}
15 км 5/1 800 м
[Cu hum Ci sp]
+18.5 +12.6 68 +20 +20 1019.1 997.1
17 17.10 С 2
{3}
15 км 6/1 600 м
[Sc Ci sp]
+17.3 +12.5 73 +18 +18 1019.4 997.2
18 17.10 С 2
{6}
15 км 6/1 600 м
[Sc Ci fib]
+15.6 +12.1 80 +16 +16 1020.2 997.9 +19.6
19 17.10 С 2
{4}
15 км 6/1 600 м
[Sc Ci sp]
+14.7 +11.8 83 +14 +14 1020.8 998.5
20 17.10 С 3
{5}
15 км 6/0
[Ci fib]
+13.7 +11.9 89 +12 +12 1021.3 998.8
21 17.10 С 3
{5}
15 км 6/0
[Ci fib]
+13.2 +11.5 89 +12 +12 1021.8 999.3
22 17.10 С 3
{4}
15 км 6/0
[Ci fib]
+12.5 +11.0 91 +11 +11 1022.2 999.6
23 17.10 С 3
{4}
15 км 6/4 600 м
[Sc Ci sp]
+12.5 +10.5 88 +11 +11 1022.3 999.7
00 18.10 С 3
{5}
15 км 9/6 600 м
[Sc Ci sp]
+12.6 +10.7 88 +11 +11 1022.4 999.8
01 18.10 С 3
{5}
12 км 9/9 600 м
[Sc]
+12.8 +10.9 88 +11 +11 1022.3 999.8
02 18.10 С 3
{5}
12 км 9/9 600 м
[Sc]
+12.7 +10.8 88 +11 +11 1022.5 1000.0
03 18.10 С 3
{6}
12 км {морось} 9/9 840 м
[Sc]
+12.6 +10.5 87 +11 +11 1022.7 1000.1
04 18.10 С 2
{4}
12 км 9/9 570 м
[Sc]
+12.5 +10.4 87 +12 +12 1022.8 1000.2
05 18.10 С 3
{5}
12 км 9/9 570 м
[Sc]
+12.1 +10.6 91 +10 +10 1023.0 1000.3
06 18.10 С 5
{6}
3500 м дымка 9/9 120 м
[St]
+11.7 +10.8 94 +9 +9 1023.3 1000.6 +11.7
07 18.10 СВ 4
{7}
3200 м дымка 9/9 120 м
[St]
+11.2 +10.5 95 +9 +9 1023.5 1000.8
08 18.10 СВ 5
{6}
1200 м дымка 9/9 30 м
[St]
+11.2 +10.7 97 +8 +8 1023.9 1001.2
09 18.10 СВ 5
{7}
3200 м дымка 9/9 90 м
[Sc]
+11.7 +10.7 94 +9 +9 1024.3 1001.7
10 18.10 СВ 6
{8}
15 км 6/6 270 м
[Sc]
+13.3 +10.8 85 +11 +12 1024.3 1001.8

 

Местоположение метеостанции Charleroi (Бельгия): широта 50.47 долгота 4.45 высота над уровнем моря 192 м.

В архиве по умолчанию представлена погода в Charleroi за последнюю неделю. Архивные данные за месяц целиком и за предыдущие месяцы, начиная с января 2011 года, Вы можете получить, выбрав интересующий диапазон дат из раскрывающегося списка и нажав кнопку "Ввод!".


*Определитесь, кто Вы:
робот инопланетянин человек

Внимание! Время в таблицах - всемирное. Для получения местного времени необходимо прибавить поправку, которая в Charleroi равна 1 ч.

Смотрите также архив погоды в соседних городах и на ближайших метеорологических станциях:

Погода в Ernage (Бельгия) (28 км)
Погода в Florennes (Бельгия) (30 км)
Погода в Uccle (Бельгия) (37 км)
Погода в Beauvechain (Бельгия) (38 км)
Погода в Dourbes (Бельгия) (43 км)
Погода в Chievres (Бельгия) (45 км)
Погода в Bruxelles (Бельгия) (48 км)
Погода в Humain (Бельгия) (64 км)
Погода в Melle (Бельгия) (72 км)
Погода в Schaffen (Бельгия) (73 км)

Пояснения к столбцам:

Ветер - указаны скорость ветра в м/с - средняя за 10 мин, порывы в срок и между сроками (в фигурных скобках) и направление, откуда дует ветер: С - северный, СВ - северо-восточный, В - восточный, ЮВ - юго-восточный, Ю - южный, ЮЗ - юго-западный, З - западный, СЗ - северо-западный.
Видимость - горизонтальная дальность видимости в метрах или километрах. При видимости от 1 до 10 км при отсутствии осадков обычно наблюдается дымка, при ухудшении видимости до 1 км и менее - туман. В сухую погоду видимость может ухудшаться дымом, пылью или мглою.
Явления - указаны атмосферные явления, наблюдавшиеся в срок или в последний час перед сроком; фигурными скобками обозначены явления, наблюдавшиеся между сроками (за 1-3 часа до срока); квадратными скобками обозначены град или гололедные отложения с указанием их диаметра в мм.
Облачность - указаны через наклонную черту общая и нижняя облачность в баллах и высота нижней границы облаков в метрах; квадратными скобками обозначены формы облаков: Ci - перистые, Cs - перисто-слоистые, Cc - перисто-кучевые, Ac - высококучевые, As - высокослоистые, Sc - слоисто-кучевые, Ns - слоисто-дождевые, Cu - кучевые, Cb - кучево-дождевые. Подробнее классификацию облаков см. в Атласе облаков (PDF).
T - Температура воздуха - температура, измеренная на высоте 2 м над землей.
Td - Температура точки росы - температура, при понижении до которой содержащийся в воздухе водяной пар достигнет насыщения.
f - Относительная влажность воздуха - влажноcть воздуха, измеренная на высоте 2 м над землей.
Te - Эффективная температура - температура, которую ощущает одетый по сезону человек в тени. Характеристика душности погоды. При расчете учитывается влияние влажности воздуха и скорости ветра на теплоощущения человека.
Tes - Эффективная температура на солнце - температура, которую ощущает человек, с поправкой на солнечный нагрев. Характеристика знойности погоды. Зависит от высоты солнца над горизонтом, облачности и скорости ветра. Ночью, в пасмурную погоду, а также при ветре 12 м/с и более поправка равна нулю.
P - Атмосферное давление - приведенное к уровню моря атмосферное давление.
Po - Атмосферное давление - измеренное на уровне метеостанции атмосферное давление.
Tmin - Минимальная температура - минимум температуры воздуха на высоте 2 м над землей.
Tmax - Максимальная температура - максимум температуры воздуха на высоте 2 м над землей.
R - Количество осадков - Количество выпавших осадков за период времени, мм. При наведении курсора мыши на число - период времени, за который выпало указанное количество осадков.
R24 - Количество осадков - Количество выпавших осадков за 24 часа, мм.
S - Снежный покров - Высота снежного покрова, см. При наведении курсора мыши на число - состояние снежного покрова и степень покрытия местности в баллах.